User: anonymous   Login
Location: Caltech
(34.1382°N, 118.1253°W)
Time: 13:57:55
(UTC-08:00)
Language:

COSMOS 2428 - Orbit

View from above orbital plane
View from above orbital plane
View from above satellite
View from above satellite

Ground track
Ground track

The orbit data is extracted from the following two-line orbital elements,

1 31792U 07029A   14329.57403703  .00000463  00000-0  27637-3 0  2105
2 31792 070.9770 211.4559 0012397 246.4670 159.0501 14.12481594382106
Epoch (UTC): 25 November 2014 13:46:36
Eccentricity: 0.0012397
inclination: 70.9770°
perigee height: 842 km
apogee height: 860 km
right ascension of ascending node: 211.4559°
argument of perigee: 246.4670°
revolutions per day: 14.12481594
mean anomaly at epoch: 159.0501°
orbit number at epoch: 38210

The dashed part of the orbit path shows where the satellite is in the earth's shadow,  

DLR